Location: Gajan
(43.0218°N, 1.1244°E)
Time: 08:11:06
(UTC+00:00)

Cosmos 1689 Rocket - Pass Details

Date: 22 April 2021
Orbit: 346 x 360 km, 97.5° (Epoch: 08 May)

Event Time Altitude Azimuth Distance (km) Brightness Sun altitude
Rises 19:16:16 0° 7° (N) 2,179 6.1 -5.9°
Reaches altitude 10° 19:18:14 10° 2° (N) 1,327 5.1 -6.3°
Maximum altitude 19:20:58 49° 286° (WNW) 461 3.0 -6.7°
Drops below altitude 10° 19:23:40 10° 209° (SSW) 1,308 4.8 -7.2°
Sets 19:25:35 0° 204° (SSW) 2,142 5.8 -7.5°
